Overview Statistics Trail Chart Weather Telemetry Raw packets
 

This is the latest recevied weather packets stored in our database for station/object WI0K. If no packets are shown the sender has not sent any weather packets the latest 10 day(s).

<< 89 90 91 92 93 94 95 >>
Time Temp. Humidity Pressure Rain* Wind** Luminosity Snow
1788009783 20° C 51% 1020.3 hPa 0 mm - 124 W/m² -
1788009482 20° C 52% 1020.3 hPa 0 mm - 117 W/m² -
1788009181 19.44° C 52% 1020.2 hPa 0 mm - 105 W/m² -
1788008880 19.44° C 52% 1020.2 hPa 0 mm - 78 W/m² -
1788008578 18.89° C 53% 1020.1 hPa 0 mm - 62 W/m² -
1788008277 18.89° C 55% 1020.1 hPa 0 mm - 54 W/m² -
1788007977 18.89° C 55% 1020.1 hPa 0 mm - 44 W/m² -
1788007676 18.89° C 55% 1020.1 hPa 0 mm - 31 W/m² -
1788007373 18.89° C 58% 1020.1 hPa 0 mm - 19 W/m² -
1788007073 18.89° C 56% 1019.9 hPa 0 mm - 15 W/m² -
1788006771 18.89° C 55% 1019.9 hPa 0 mm - 11 W/m² -
1788006467 19.44° C 53% 1019.9 hPa 0 mm - 7 W/m² -
1788006166 19.44° C 52% 1019.8 hPa 0 mm - 3 W/m² -
1788005865 19.44° C 53% 1019.7 hPa 0 mm - 2 W/m² -
1788005564 19.44° C 52% 1019.7 hPa 0 mm - 1 W/m² -
1788005263 19.44° C 52% 1019.7 hPa 0 mm - 0 W/m² -
1788004962 19.44° C 53% 1019.7 hPa 0 mm - 0 W/m² -
1788004661 18.89° C 55% 1019.7 hPa 0 mm - 0 W/m² -
1788004360 19.44° C 54% 1019.8 hPa 0 mm - 0 W/m² -
1788004060 19.44° C 52% 1019.9 hPa 0 mm - 0 W/m² -
1788003758 19.44° C 52% 1019.8 hPa 0 mm - 0 W/m² -
1788003456 19.44° C 53% 1019.9 hPa 0 mm - 0 W/m² -
1788003155 19.44° C 55% 1019.9 hPa 0 mm - 0 W/m² -
1788002855 19.44° C 54% 1020.1 hPa 0 mm - 0 W/m² -
1788002554 19.44° C 52% 1020.1 hPa 0 mm - 0 W/m² -

* Rain latest hour (hover to see other rain measurements)
** Current wind speed in m/s (hover to see current wind gust speed)